CAPE
0 0 0 0 0 0 0 0 0 0 0 0 0 0 0 1 0 0 0 0 2 9
0 0 0 0 0 0 0 0 0 0 0 0 0 0 0 0 0 0 0 0 27 66
0 0 0 0 0 0 0 0 0 0 0 0 0 0 0 0 0 0 0 0 0 0
0 0 0 0 0 0 0 0 0 0 0 0 0 0 0 0 0 0 0 0 0 0
0 0 0 0 0 0 0 0 0 0 0 0 0 0 0 0 0 0 0 3 0 0
0 0 0 0 0 0 0 0 0 0 0 0 0 0 0 0 0 0 0 0 5 1
0 0 0 0 0 0 0 0 0 0 0 0 0 0 0 0 0 0 0 0 0 5
0 0 0 0 0 0 0 0 0 0 0 0 0 0 0 0 0 0 0 0 0 0
0 0 0 0 0 0 0 0 0 0 0 0 0 0 0 0 0 0 0 0 0 0
0 0 0 0 0 0 0 0 0 0 0 0 0 0 0 0 0 0 0 0 0 0
0 0 0 0 0 0 0 0 0 0 0 0 0 0 0 0 0 0 0 0 0 0
0 0 0 0 0 0 0 0 0 0 0 0 0 0 0 0 0 0 0 0 0 0
0 0 0 0 0 0 0 0 0 1 0 0 0 0 0 0 0 0 0 0 0 0
0 0 0 0 0 0 0 0 0 0 0 0 1 0 0 0 0 0 0 0 0 0
CIN
0 0 0 0 0 0 0 0 0 0 0 0 0 0 0 -52 0 0 0 0 -44 -155
0 0 0 0 0 0 0 0 0 0 0 0 0 0 0 0 0 0 0 0 -326 -275
0 0 0 0 0 0 0 0 0 0 0 0 0 0 0 0 0 0 0 0 0 0
0 0 0 0 0 0 0 0 0 0 0 0 0 0 0 0 0 -1 0 0 0 0
0 0 0 0 0 0 0 0 0 0 0 0 0 0 0 0 0 0 0 -7 0 0
0 0 0 0 0 0 0 0 0 0 0 0 0 0 0 0 0 0 0 0 -8 -3
0 0 0 0 0 0 0 0 0 0 0 0 0 0 0 0 0 0 0 0 0 -17
0 0 0 0 0 0 0 0 0 0 0 0 0 0 0 0 0 0 0 0 0 0
0 0 0 0 0 0 0 0 0 0 0 0 0 0 0 0 0 0 0 0 0 0
0 0 0 0 0 0 0 0 0 0 0 0 0 0 0 0 0 0 0 0 0 0
0 0 0 0 0 0 0 0 0 0 0 0 0 0 0 0 0 0 0 0 0 0
0 0 0 0 0 0 0 0 0 0 0 0 0 0 0 0 0 0 0 0 0 0
0 0 0 0 0 0 0 0 0 0 0 0 0 0 0 0 0 0 0 0 0 0
0 0 0 0 0 0 0 0 0 0 0 0 -2 0 0 0 0 0 0 0 0 0
Wind_Speed
24 24 23 22 22 22 22 21 21 21 22 22 23 23 25 25 25 24 22 18 16 13
22 22 23 24 23 23 23 22 22 22 23 24 25 25 27 28 28 27 25 22 16 14
24 22 21 22 25 25 25 24 24 25 25 26 27 27 27 28 28 29 28 25 19 17
27 26 25 25 26 27 27 25 26 27 29 29 29 29 29 29 29 29 31 30 28 19
25 27 28 27 28 27 30 29 30 31 31 32 30 30 30 31 31 31 31 32 31 28
23 22 26 29 31 31 31 31 30 32 33 33 34 33 31 32 32 32 31 31 30 29
25 27 27 27 30 33 35 35 34 32 36 35 36 36 35 35 35 33 32 31 29 27
30 31 33 35 37 37 38 38 38 37 37 37 37 36 38 39 37 37 35 33 31 28
34 37 39 40 40 39 39 39 38 38 40 41 41 40 39 37 39 39 37 37 34 30
36 38 39 39 40 39 39 39 38 37 38 41 41 42 42 41 41 41 40 38 35 33
37 38 38 38 39 39 39 39 40 41 40 41 41 42 43 44 44 42 41 40 38 36
36 38 38 39 41 39 38 39 41 41 42 42 41 41 42 43 43 44 43 41 40 37
33 35 38 38 37 37 38 40 39 42 41 40 40 40 41 41 41 43 42 39 38 37
34 34 32 33 36 38 38 37 38 40 40 39 39 39 39 39 38 38 40 38 35 34
Wind_Direction
338 334 332 333 330 328 328 329 328 327 324 324 323 323 321 317 315 314 313 315 313 312
342 338 335 330 324 323 324 325 325 324 321 320 321 322 321 320 316 313 315 313 311 309
334 341 331 327 320 320 318 320 322 318 316 316 317 321 321 321 322 316 312 314 315 310
326 329 337 315 317 317 315 318 315 313 311 309 311 314 317 319 321 317 311 308 307 312
327 328 325 320 315 318 314 316 311 308 306 306 307 310 313 314 312 313 312 311 309 306
338 336 324 319 314 313 312 313 315 311 305 304 303 305 310 309 308 310 311 314 315 312
331 327 325 325 317 310 307 305 306 310 305 303 299 300 304 302 303 306 306 311 319 319
323 320 316 310 310 309 308 303 301 301 300 301 299 298 297 296 297 297 299 304 309 314
319 317 315 309 308 308 308 306 303 298 292 292 287 293 298 299 296 295 296 296 300 305
319 316 315 312 311 310 306 305 306 303 298 292 296 293 294 296 295 294 293 294 295 297
318 317 317 315 313 311 309 306 304 301 299 295 295 295 296 292 290 291 291 290 290 290
320 317 317 315 313 313 312 309 306 304 300 298 296 297 296 295 293 290 289 288 287 289
327 324 320 319 317 317 314 309 308 305 303 301 299 299 297 295 293 291 291 291 289 288
328 326 325 324 321 318 317 315 312 308 307 304 302 300 299 297 296 296 293 292 293 291